Tracking 19909 objects as of 21-Oct-2019
HD Live streaming from Space Station
objects crossing your sky now

CZ-2C R/B

Track CZ-2C R/B now!
10-day predictions


NORAD ID: 43521
Int'l Code: 2018-054D
Perigee: 483.5 km
Apogee: 598.3 km
Inclination: 35.2 °
Period: 95.3 minutes
Semi major axis: 6911 km
RCS: Unknown
Launch date: June 27, 2018
Source: People's Republic of China (PRC)
Launch site: Xichang Space Center, China (XSC)

Note: This is a ROCKET BODY
aabbcc
Your satellite tracking list
Your tracking list is empty




NASA's NSSDC Master Catalog

Two Line Element Set (TLE):
1 43521U 18054D   19294.21551079  .00000386  00000-0  23202-4 0  9998
2 43521  35.1532 220.2566 0083058 159.5389 200.8681 15.10788752 72797
Source of the keplerian elements: AFSPC